Flag for Angola Weather past 2 weeks in Luanda, Angola

Now
70 °F

Passing clouds.


Feels Like: 70 °F
Forecast: 67 / 74 °F
Wind: No wind

Location: Luanda Airport

Current Time: Aug 31, 2014 at 3:52:26 AM

Latest Report: Aug 31, 2014 at 3:00 AM


Visibility: N/A

Pressure: 29.95 "Hg

Humidity: 83%

Dew point: 64 °F

Location of LuandaLocation

Historic Weather in Luanda — Graph

°F

Luanda temperature yesterday

Maximum temperature yesterday: 79 °F (at 12:00 PM)
Minimum temperature yesterday: 66 °F (at 12:00 AM)
Average temperature yesterday: 71 °F

Past Weeks' High & Low Weather Summary

 TemperatureHumidityPressure
High82 °F (Aug 24, 1:00 PM)94% (Aug 18, 12:00 AM)30.07 "Hg (Aug 18, 12:00 AM)
Low66 °F (Aug 17, 4:00 AM)51% (Aug 17, 1:00 PM)29.86 "Hg (Aug 26, 3:00 PM)
Average71 °F79%29.98 "Hg
* Reported Aug 16 2:00 AM — Aug 31 2:00 AM, Luanda, Weather by CustomWeather, © 2014

Note: Actual official high and low records may vary slightly from our data, if they occured in-between our weather recording intervals... More about our weather records

Advertising

Luanda weather history for previous 24 hours

 ConditionsComfort  
Time TempWeatherWind HumidityBarometerVisibility
2:00 AM
Aug 31
70 °FPassing clouds.5 mph83%29.95 "HgN/A
1:00 AM70 °FPassing clouds.5 mph83%29.98 "HgN/A
12:00 AM70 °FPassing clouds.5 mph83%29.98 "HgN/A
11:00 PM
Aug 30
70 °FPassing clouds.3 mph83%30.01 "HgN/A
10:00 PM70 °FPassing clouds.6 mph83%29.98 "HgN/A
9:00 PM70 °FPassing clouds.5 mph83%29.98 "HgN/A
8:00 PM70 °FPassing clouds.5 mph83%29.98 "HgN/A
7:00 PM70 °FPassing clouds.7 mph83%29.92 "HgN/A
6:00 PM70 °FScattered clouds.7 mph83%29.92 "HgN/A
5:00 PM72 °FScattered clouds.7 mph78%29.89 "HgN/A
4:00 PM77 °FPartly sunny.5 mph61%29.89 "HgN/A
3:00 PM77 °FPartly sunny.7 mph61%29.89 "HgN/A
2:00 PM77 °FPartly sunny.7 mph65%29.92 "HgN/A
1:00 PM79 °FPartly sunny.7 mph58%29.92 "HgN/A
12:00 PM79 °FBroken clouds.2 mph61%29.95 "HgN/A
10:00 AM72 °FBroken clouds.5 mph78%29.98 "Hg6 mi
9:00 AM68 °FFog.7 mph88%30.01 "Hg3 mi
7:00 AM68 °FMore clouds than sun.No wind88%29.98 "Hg5 mi
6:00 AM68 °FPassing clouds.3 mph88%29.95 "HgN/A
5:00 AM68 °FPassing clouds.2 mph88%29.95 "HgN/A
3:00 AM66 °FPassing clouds.5 mph94%29.95 "HgN/A
Weather by CustomWeather, © 2014

See weather overviewHow to use our weather pages